Погода в Кременском

Россия / Калужская область     55°06′26″N   35°57′12″E
темп.,
°C
ветер,
м/с
пор.,
м/с
влажн.,
%
обл.,
%
осадки,
мм/ч
давл.,
гПа
погр.,
м
31 июля, сб
сб3100:00+16зюз368858 0.1 1006107
03:00+14зюз311930 0.1 1006219
06:00+15зюз310900 0.0 1006244
09:00+21зюз510650 0.0 1006890
12:00+24з610410 0.0 10061977
15:00+25з69340 0.0 10062195
18:00+24зюз5947100 0.0 10071280
21:00+18зюз3471100 0.0 100965
1 августа, вс
вс100:00+17юз357539 0.0 101074
03:00+15юз22845 0.0 101134
06:00+16ююз25825 0.0 1011108
09:00+22ю475999 0.0 1010430
12:00+27ююз61051100 0.1 10101067
15:00+28зюз51050100 0.1 10092266
18:00+20ююв249662 5.1 101090
21:00+19юз369199 5.1 1010110
2 августа, пн
пн200:00+18ююз2495100 1.1 101068
03:00+17ю1196100 2.4 101013
06:00+18вюв2495100 0.2 100991
09:00+21ююв3578100 0.2 1007339
12:00+28ю585094 0.0 10051499
15:00+29юз61050100 0.0 10041924
18:00+28ю612571 0.0 10011497
21:00+17сз259043 1.5 1004111
3 августа, вт
вт300:00+16юз3897100 1.1 1002178
03:00+17юз3898100 1.5 1002354
06:00+17зюз3697100 0.1 1003393
09:00+15сз4897100 1.4 1006499
12:00+16зсз3795100 1.8 1008418
15:00+20з577587 2.4 10091203
18:00+19юз3780100 1.2 1009514
21:00+15зюз368476 1.2 1010100
4 августа, ср
ср400:00+16з2575100 0.0 1012121
03:00+13з39920 0.0 1013207
06:00+12з28950 0.0 1014219
09:00+18сз35580 0.0 1015771
12:00+21сз343827 0.0 10162039
15:00+23сз333517 0.0 10162389
18:00+21сз454898 0.0 1016616
21:00+17сз226141 0.0 101725